Location: Bucquoy
(50.1391°N, 2.7097°E)
Time: 23:08:19
(UTC+00:00)

Okean 2 Rocket - Pass Details

Date: 06 May 2021
Orbit: 617 x 641 km, 82.5° (Epoch: 21 June)

Event Time Altitude Azimuth Distance (km) Brightness Sun altitude
Rises 02:07:43 0° 338° (NNW) 2,909 7.0 -16.3°
Reaches altitude 10° 02:10:21 10° 323° (NW) 1,995 5.9 -16.1°
Maximum altitude 02:13:41 21° 274° (W) 1,387 4.5 -15.8°
Enters shadow 02:14:33 20° 257° (WSW) 1,434 4.5 -15.7°
